Lexington Weather

Lexington, Massachusetts, USA

40°F
1/23/2020 11:37am 
  • Lexington Conditions: Clear
  • Temperature: 39.7°F / 4.3°CWarmer 5.7°F than last hour.
  • Dew Point: 21.7°FIncreased 0.1°Fsince last hour.
  • Relative Humidity: 48%Decreased 12.0% since last hour.
  • Wind: Calm, 10-min avg: Calm, gust: 1 mph
  • Barometer: 30.32 inFalling 0.02  inHg/hr Falling Slowly
  • Visibility: 10 miles
  • Rain Today: 0.00 in
  •   

Regional Weather Roundup
for Boston / Norton, MA

        
000
ASUS41 KBOX 211610
RWRBOX

REGIONAL WEATHER ROUNDUP
NATIONAL WEATHER SERVICE BOSTON/NORTON MA
1100 AM EST TUE JAN 21 2020

NOTE:  "FAIR" INDICATES FEW OR NO CLOUDS BELOW 12,000 FEET WITH NO 
SIGNIFICANT WEATHER AND/OR OBSTRUCTIONS TO VISIBILITY.

MAZALL-211700-
EASTERN MASSACHUSETTS
  
CITY           SKY/WX    TMP DP  RH WIND       PRES   REMARKS
BOSTON         FAIR      24   1  36 NW9       30.43F WCI  14          
BEVERLY        FAIR      21   3  45 NW7       30.42F WCI  12          
LAWRENCE       FAIR      18   1  47 N5        30.44F WCI  11          
BEDFORD        FAIR      21   1  41 NW8       30.42F WCI  11          
BLUE HILL        N/A     19   1  45 N8        30.36  WCI   9          
NORWOOD        FAIR      25   1  35 N8        30.43F WCI  16          
MARSHFIELD     FAIR      25   7  46 NW8G15    30.41F WCI  16          
PLYMOUTH       FAIR      23   5  46 NW10      30.40F WCI  12          
TAUNTON        FAIR      24   2  38 N7        30.42F WCI  16          
NEW BEDFORD    FAIR      24   2  38 VRB7      30.40F WCI  16          
$$

MAZALL-211700-
CAPE COD AND THE ISLANDS
  
CITY           SKY/WX    TMP DP  RH WIND       PRES   REMARKS
FALMOUTH       NOT AVBL                                               
HYANNIS        FAIR      29  16  58 N13       30.37F WCI  19          
CHATHAM        PTSUNNY   30  20  66 VRB7      30.38F WCI  23          
PROVINCETOWN   FAIR      28  19  69 NW12      30.40F WCI  18          
NANTUCKET      FAIR      32  21  64 N17       30.37S WCI  21          
MARTHAS VNYRD  FAIR      27  12  53 N13       30.39S WCI  16          
$$
 
MAZALL-211700-
CENTRAL AND WESTERN MASSACHUSETTS
  
CITY           SKY/WX    TMP DP  RH WIND       PRES   REMARKS
WORCESTER      FAIR      20   0  41 N6        30.34F WCI  12          
FITCHBURG      FAIR      22   1  40 VRB5      30.41F WCI  16          
ORANGE         FAIR      19   1  45 N10       30.41F WCI   7          
SPRINGFIELD    MOSUNNY   20   1  44 N9        30.42F WCI   9          
WESTFIELD      FAIR      23   3  42 NW9       30.42F WCI  13          
NORTH ADAMS    FAIR      16   1  51 W6        30.44R WCI   7          
PITTSFIELD     FAIR      17   2  51 NW7       30.36S WCI   8          
$$
 
RIZALL-211700-
RHODE ISLAND
  
CITY           SKY/WX    TMP DP  RH WIND       PRES   REMARKS
PROVIDENCE     FAIR      24   3  40 N8        30.43F WCI  15          
NEWPORT        FAIR      24   3  40 N12       30.40F WCI  13          
BLOCK ISLAND   FAIR      23   6  48 N8        30.42F WCI  14          
SMITHFIELD     FAIR      20   3  48 N6        30.40F WCI  12          
WESTERLY       FAIR      27   1  32 N9        30.43F WCI  18          
$$
 
CTZALL-211700-
CONNECTICUT
  
CITY           SKY/WX    TMP DP  RH WIND       PRES   REMARKS
BRADLEY INTL   FAIR      22   4  46 NE8       30.43F WCI  12          
HARTFORD       FAIR      23   4  44 N7        30.45F WCI  15          
BRIDGEPORT     FAIR      28   5  37 N10       30.45F WCI  19          
DANBURY        FAIR      22   7  52 NW10      30.44F WCI  11          
GROTON         FAIR      25   2  37 N8        30.43F WCI  16          
NEW HAVEN      FAIR      27   6  41 NW8       30.44F WCI  19          
CHESTER        NOT AVBL                                               
MERIDEN        FAIR      24   5  44 W8        30.44F WCI  15          
WILLIMANTIC    FAIR      22   3  44 NW5       30.43F WCI  16          
OXFORD         FAIR      21   5  50 N5        30.40S WCI  15          
$$

MEZ002-015-021-024-NHZ003-005-008-011-012-014-VTZ005-008-211700-
NORTHERN NEW ENGLAND
  
CITY           SKY/WX    TMP DP  RH WIND       PRES   REMARKS
PORTLAND ME    FAIR      19   1  45 NW3       30.43S                  
BANGOR ME      FAIR      11  -1  58 NW9       30.40S WCI  -2          
CONCORD NH     FAIR      17   0  47 NW9       30.41S WCI   6          
MANCHESTER NH  PTSUNNY   21   0  39 VRB6      30.40F WCI  13          
NASHUA NH      FAIR      20   3  48 NW10G18   30.42F WCI   9          
PORTSMOUTH NH  MOSUNNY   18   1  47 N5        30.41S WCI  11          
JAFFREY NH     FAIR      20  -1  40 N8        30.34F WCI  10          
KEENE NH       FAIR      20  16  84 CALM      30.43F                  
BURLINGTON VT  PTSUNNY   12   5  73 E3        30.45F                  
MT. WASHINGTON PTSUNNY    7 -17  33 N15         N/A  WCI -11          
$$

NYZ052-076-211700-
EASTERN NEW YORK
  
CITY           SKY/WX    TMP DP  RH WIND       PRES   REMARKS
ALBANY         PTSUNNY   19   2  47 N7        30.49S WCI  10          
NEW YORK CITY  FAIR      26   9  48 W6        30.47S WCI  19          
$$
 
ANZALL-211700-
MARINE OBSERVATIONS
  
STATION/POSITION TIME  TEMP    WIND        PRES    VSBY  WAVE
                       AIR SEA DIR/SP/G                  HT/PER
                 (UTC) (F)     (DEG/KT/KT) (MB)    (MI)  (FT/S)
BOSTON BUOY      1550   21 42  340/  8/ 12 1029.7S         2/11
BUZZARDS BAY     1500   21     350/ 17/ 19 1030.1R
NANTUCKET SOUND  1540                        N/A           2/ 3
MASS BAY-STELLWA 1504   21 42  350/ 12/ 16 1028.2R  1 7/8  2/ 3
ISLE OF SHOALS   1500   18     340/  8/  9 1029.9S
S OF BLOCK IS    1600      45                N/A           3/ 5
$$

......................KEY.........................
  SKY/WX - SKY CONDITION/PRESENT WEATHER
  TMP    - TEMPERATURE IN FAHRENHEIT
  DWPT   - DEWPOINT IN FAHRENHEIT
  RH     - RELATIVE HUMIDITY IN PERCENT
  WIND   - DIRECTION AND SPEED IN MPH
  PRES   - MEAN SEA LEVEL PRESSURE IN INCHES OF HG
  WCI    - WIND CHILL INDEX
  VSB    - VISIBILITY IN MILES
  HX     - HEAT INDEX
  TC     - TEMPERATURE IN CELSIUS
  VRB    - VARIABLE WIND DIRECTION
  N/A    - NOT AVAILABLE
  
      

Other recent Regional Weather Roundups

Thu Jan 23, 11:10am

Thu Jan 23, 11:00am

Thu Jan 23, 10:10am

Thu Jan 23, 10:00am

Thu Jan 23, 9:10am

Thu Jan 23, 9:00am

Thu Jan 23, 8:10am

Thu Jan 23, 8:00am

Thu Jan 23, 7:10am

Thu Jan 23, 7:01am

Thu Jan 23, 6:10am

Thu Jan 23, 6:00am

Thu Jan 23, 5:10am

Thu Jan 23, 5:00am

Thu Jan 23, 4:10am

Thu Jan 23, 4:01am

Thu Jan 23, 3:10am

Thu Jan 23, 3:00am

Thu Jan 23, 2:10am

Thu Jan 23, 2:00am

Thu Jan 23, 1:10am

Thu Jan 23, 1:00am

Thu Jan 23, 12:10am

Thu Jan 23, 12:00am

Wed Jan 22, 11:10pm

Wed Jan 22, 11:01pm

Wed Jan 22, 10:10pm

Wed Jan 22, 10:00pm

Wed Jan 22, 9:10pm

Wed Jan 22, 9:00pm

Wed Jan 22, 8:10pm

Wed Jan 22, 8:01pm

Wed Jan 22, 7:10pm

Wed Jan 22, 7:00pm

Wed Jan 22, 6:10pm

Wed Jan 22, 6:01pm

Wed Jan 22, 5:10pm

Wed Jan 22, 5:00pm

Wed Jan 22, 4:10pm

Wed Jan 22, 4:00pm

Wed Jan 22, 3:10pm

Wed Jan 22, 3:00pm

Wed Jan 22, 2:10pm

Wed Jan 22, 2:00pm

Wed Jan 22, 1:10pm

Wed Jan 22, 1:00pm

Wed Jan 22, 12:10pm

Wed Jan 22, 12:00pm

Wed Jan 22, 11:10am

Wed Jan 22, 11:00am

Wed Jan 22, 10:10am

Wed Jan 22, 10:01am

Wed Jan 22, 9:10am

Wed Jan 22, 9:00am

Wed Jan 22, 8:10am

Wed Jan 22, 8:00am

Wed Jan 22, 7:10am

Wed Jan 22, 7:00am

Wed Jan 22, 6:10am

Wed Jan 22, 6:00am

Wed Jan 22, 5:10am

Wed Jan 22, 5:00am

Wed Jan 22, 4:10am

Wed Jan 22, 4:00am

Wed Jan 22, 3:10am

Wed Jan 22, 3:01am

Wed Jan 22, 2:10am

Wed Jan 22, 2:00am

Wed Jan 22, 1:10am

Wed Jan 22, 1:00am

Wed Jan 22, 12:10am

Wed Jan 22, 12:00am

Tue Jan 21, 11:10pm

Tue Jan 21, 11:00pm

Tue Jan 21, 10:10pm

Tue Jan 21, 10:00pm

Tue Jan 21, 9:10pm

Tue Jan 21, 9:01pm

Tue Jan 21, 8:10pm

Tue Jan 21, 8:00pm

Tue Jan 21, 7:10pm

Tue Jan 21, 7:00pm

Tue Jan 21, 6:10pm

Tue Jan 21, 6:01pm

Tue Jan 21, 5:10pm

Tue Jan 21, 5:00pm

Tue Jan 21, 4:10pm

Tue Jan 21, 4:00pm

Tue Jan 21, 3:10pm

Tue Jan 21, 3:01pm

Tue Jan 21, 2:10pm

Tue Jan 21, 2:00pm

Tue Jan 21, 1:10pm

Tue Jan 21, 1:00pm

Tue Jan 21, 12:10pm

Tue Jan 21, 12:00pm

Tue Jan 21, 11:00am

Tue Jan 21, 10:10am

Tue Jan 21, 10:00am

Tue Jan 21, 9:10am

Tue Jan 21, 9:00am

Tue Jan 21, 8:10am

Tue Jan 21, 8:00am

Tue Jan 21, 7:10am

Tue Jan 21, 7:00am

Tue Jan 21, 6:10am

Tue Jan 21, 6:00am

Tue Jan 21, 5:10am

Tue Jan 21, 5:00am

Tue Jan 21, 4:10am

Tue Jan 21, 4:00am

Tue Jan 21, 3:10am

Tue Jan 21, 3:00am

Tue Jan 21, 2:10am

Tue Jan 21, 2:01am

Tue Jan 21, 1:10am

Tue Jan 21, 1:00am

Tue Jan 21, 12:10am

Tue Jan 21, 12:00am

Mon Jan 20, 11:10pm

Mon Jan 20, 11:00pm

Mon Jan 20, 10:10pm

Mon Jan 20, 10:00pm

Mon Jan 20, 9:10pm

Mon Jan 20, 9:00pm

Mon Jan 20, 8:10pm

Mon Jan 20, 8:00pm

Mon Jan 20, 7:10pm

Mon Jan 20, 7:00pm

Mon Jan 20, 6:10pm

Mon Jan 20, 6:00pm

Mon Jan 20, 5:10pm

Mon Jan 20, 5:00pm

Mon Jan 20, 4:10pm

Mon Jan 20, 4:01pm

Mon Jan 20, 3:10pm

Mon Jan 20, 3:00pm

Mon Jan 20, 2:10pm

Mon Jan 20, 2:00pm

Mon Jan 20, 1:10pm

Mon Jan 20, 1:00pm

Mon Jan 20, 12:10pm

Mon Jan 20, 12:00pm

Meta data:

ID: e8623738-489a-4038-9684-248347836a0b
Link: https://api.weather.gov/products/e8623738-489a-4038-9684-248347836a0b